Miscellaneous Local Product
Issued by NWS Hastings, NE

Home | Current Version | Previous Version | Graphics & Text | Print | Product List | Glossary On
Versions: 1 2 3 4 5 6 7 8 9 10 11 12 13 14 15 16 17 18 19 20 21 22 23 24 25 26 27 28 29 30 31 32 33 34 35 36 37 38 39 40 41 42 43 44 45 46 47 48 49 50
000
AXUS43 KGID 202302
MISGRI

GID CWA HOURLY WEATHER ROUNDUP
NATIONAL WEATHER SERVICE HASTINGS NE
500 PM CST TUE FEB 20 2018

NOTE: "FAIR" INDICATES FEW OR NO CLOUDS BELOW 12,000 FEET WITH NO
SIGNIFICANT WEATHER AND/OR OBSTRUCTIONS TO VISIBILITY.

...SOUTH CENTRAL NEBRASKA...

CITY           SKY/WX    TMP DP  RH WIND       PRES   REMARKS
GRAND ISLAND   FAIR      18   5  57 NW20      30.25R WCI   2
KEARNEY        NOT AVBL
HASTINGS       FAIR      18   5  57 N20       30.24R WCI   2
ORD            FAIR      13   2  61 N13       30.25R WCI  -2
YORK           FAIR      18   9  68 N16       30.24R WCI   3
AURORA         FAIR      18   6  61 N18       30.25R WCI   2
LEXINGTON      FAIR      17   4  58 N10       30.24R WCI   4
HOLDREGE       FAIR      17   6  60 N10       30.23R WCI   5
HEBRON         FAIR      23  10  55 N15       30.26R WCI  10

...NEBRASKA PANHANDLE...

CITY           SKY/WX    TMP DP  RH WIND       PRES   REMARKS
CHADRON        FAIR       6  -5  60 W10       30.17R WCI  -9
ALLIANCE       FAIR       8  -1  66 CALM      30.10R
SCOTTSBLUFF    FAIR      13  -1  54 NW6       30.11R WCI   4
SIDNEY         FAIR      11  -3  53 N9        30.09R WCI  -2

...WESTERN AND NORTH CENTRAL NEBRASKA...

CITY           SKY/WX    TMP DP  RH WIND       PRES   REMARKS
VALENTINE      FAIR       9  -3  58 W8        30.23R WCI  -3
AINSWORTH      FAIR       9   0  68 NW10      30.23R WCI  -5
ONEILL         FAIR      10   2  71 NW10      30.28R WCI  -4
BROKEN BOW     FAIR      12   0  58 N12       30.23R WCI  -2
IMPERIAL       FAIR      15   1  53 N13       30.16R WCI   1
NORTH PLATTE   FAIR      15   1  53 N10       30.21R WCI   2
MCCOOK         FAIR      17   4  56 N6        30.22R WCI   9

...EASTERN NEBRASKA...

CITY           SKY/WX    TMP DP  RH WIND       PRES   REMARKS
NORFOLK        FAIR      13   5  70 NW16G24   30.24R WCI  -3
SO SIOUX CITY  CLOUDY    14   7  73 NW21      30.27R WCI  -4
TEKAMAH        FAIR      17  10  74 NW20      30.27R WCI   1
COLUMBUS       FAIR      16   9  74 NW16G23   30.27R WCI   1
ALBION         FAIR      14   5  68 NW16G23   30.26R WCI  -2
OMAHA EPPLEY   PTSUNNY   19  11  70 NW23G30   30.24R WCI   2
OFFUTT AFB     CLOUDY    19  10  68 N14G22    30.24R WCI   5
MILLARD        FAIR      20  11  68 NW15G21   30.26R WCI   7
LINCOLN        PTSUNNY   20   9  62 N20       30.27R WCI   4
NEBRASKA CITY  CLOUDY    19  15  81 N17       30.23R WCI   4
BEATRICE       FAIR      22  13  68 N18       30.25R WCI   8
FALLS CITY     PTSUNNY   21  13  71 N14G23    30.23R WCI   8

...NORTHERN KANSAS...

CITY           SKY/WX    TMP DP  RH WIND       PRES   REMARKS
GOODLAND       FAIR      16   1  51 N13       30.14R WCI   2
HILL CITY      FAIR      25   4  40 N15       30.23R WCI  13
NORTON         CLEAR     21  -2  35 N13G20    30.21R WCI   9
PHILLIPSBURG   SUNNY     25   3  39 N8G14     30.25R WCI  16
SMITH CENTER   MOSUNNY   23   7  50 N14       30.25R WCI  11
BELOIT         SUNNY     25   9  50 N15       30.24R WCI  12
HAYS           FAIR      27   6  41 N18       30.22R WCI  14
RUSSELL        FAIR      28   7  41 N15       30.21R WCI  16
CONCORDIA      FAIR      25  10  53 N18G25    30.23R WCI  11
SALINA         PTSUNNY   27  17  66 N20       30.22R WCI  13
TOPEKA         CLOUDY    25  20  81 NW10      30.22R WCI  15



USA.gov is the U.S. government's official web portal to all federal, state and local government web resources and services.